[[{"header":{"parameterUnit":"m.s-1","parameterCategory":1,"la1":30.2991,"la2":30.254,"lo1":-89.0895,"lo2":-89.0444,"dy":0.0017,"dx":0.0017,"nx":28,"ny":28,"refTime":"2024-02-15T03:00:00:Z","depth":0,"parameterNumber":2,"parameterNumberName":"U-component_of_WINDS"},"data":[0,0,0,0,0,0,0,0,0,0,0,0,0,0,0,0,0,0,0,0,0,0,0,0,0,0,0,0,0,0,0,0,0,0,0,0,0,0,0,0,0,0,0,0,0,0,0,0,0,0,0,0,0,0,0,0,0,0,-1.1786,-1.1785,0,-1.1775,-1.1774,-1.1774,-1.1742,-1.1741,-1.1741,-1.174,-1.1729,-1.1729,-1.173,0,0,0,0,0,0,0,0,0,0,0,0,0,-1.1779,-1.1779,-1.1786,-1.1785,-1.1785,-1.1775,-1.1774,-1.1774,-1.1742,-1.1741,-1.174,-1.174,-1.1729,-1.1729,-1.173,0,0,0,0,0,0,0,0,0,0,0,0,0,-1.1776,-1.1779,-1.1786,-1.1768,-1.1766,-1.1775,-1.1774,-1.1774,-1.1742,-1.1741,-1.174,-1.1739,-1.1729,-1.1729,-1.173,-1.1755,0,0,-1.1732,-1.1732,0,0,0,0,0,0,0,0,-1.1776,-1.1776,-1.1771,-1.1769,-1.1767,-1.1759,-1.1768,-1.1768,-1.1743,-1.1751,-1.174,-1.1739,-1.174,-1.1739,-1.174,-1.1754,-1.1754,-1.1732,-1.1732,-1.1732,-1.1732,0,0,0,0,0,0,0,-1.1777,-1.1777,-1.1781,-1.1771,-1.1769,-1.1761,-1.1759,-1.1768,-1.1752,-1.1751,-1.1748,-1.1747,-1.1739,-1.1739,-1.1739,-1.1754,-1.1732,-1.1732,-1.1733,-1.1733,-1.1787,-1.1788,0,0,0,0,0,0,-1.1779,-1.1777,-1.1782,-1.1781,-1.1769,-1.1762,-1.176,-1.1762,-1.1752,-1.1749,-1.1748,-1.1746,-1.1739,-1.1739,-1.1739,-1.1767,-1.1732,-1.1733,-1.1733,-1.1786,-1.1788,-1.1789,0,0,0,0,0,0,-1.1779,-1.178,-1.1782,-1.1778,-1.1778,-1.1763,-1.1766,-1.1763,-1.1763,-1.175,-1.1747,-1.1752,-1.1738,-1.1738,-1.1751,-1.1766,-1.1733,-1.1734,-1.1785,-1.1787,-1.1788,-1.1823,0,0,0,0,0,0,-1.1779,-1.178,-1.1789,-1.1779,-1.1778,-1.1795,-1.1767,-1.1763,-1.1764,-1.1761,-1.1752,-1.175,-1.1737,-1.175,-1.1751,-1.1766,-1.1734,-1.1783,-1.1786,-1.1788,-1.182,-1.1826,-1.183,0,0,0,0,0,-1.1779,-1.18,-1.179,-1.1791,-1.179,-1.1795,-1.1795,-1.178,-1.1766,-1.1775,-1.1766,-1.175,-1.1764,-1.1752,-1.1753,-1.1768,-1.1782,-1.1785,-1.1787,-1.1818,-1.1825,-1.183,0,0,0,0,0,0,-1.1813,-1.1798,-1.1787,-1.1805,-1.1802,-1.179,-1.1801,-1.1787,-1.1788,-1.1785,-1.1766,-1.1764,-1.178,-1.1775,-1.1762,-1.1791,-1.177,-1.1773,-1.1794,-1.1799,-1.1804,-1.1805,-1.1735,0,0,0,0,0,-1.1823,-1.1829,-1.1815,-1.1833,-1.1831,-1.1817,-1.1819,-1.1807,-1.1803,-1.1801,-1.1793,-1.179,-1.1793,-1.1796,-1.1799,-1.1819,-1.1817,-1.183,-1.1835,-1.1839,-1.1842,-1.1852,-1.1857,-1.1797,-1.1797,-1.1797,0,0,-1.1843,-1.1835,-1.184,-1.1839,-1.1835,-1.1842,-1.1816,-1.1824,-1.1828,-1.1803,-1.1814,-1.1808,-1.1803,-1.182,-1.1827,-1.1816,-1.1858,-1.1842,-1.1846,-1.1846,-1.1855,-1.1861,-1.1866,-1.1799,-1.1798,-1.1798,0,0,-1.1882,-1.1878,-1.1891,-1.1887,-1.1881,-1.1871,-1.1875,-1.1865,-1.186,-1.1871,-1.1852,-1.1857,-1.1863,-1.186,-1.186,-1.1897,-1.1882,-1.1899,-1.1924,-1.1934,-1.1939,-1.1943,-1.1956,-1.1961,-1.1901,-1.1901,-1.1901,0,-1.1908,-1.1917,-1.19,-1.1909,-1.1909,-1.1886,-1.1899,-1.1896,-1.1892,-1.1892,-1.188,-1.1888,-1.1882,-1.1898,-1.1907,-1.1907,-1.191,-1.19,-1.1939,-1.1943,-1.1947,-1.1959,-1.1964,-1.1903,-1.1903,-1.1903,-1.1903,0,-1.1949,-1.1955,-1.1967,-1.1962,-1.1964,-1.1975,-1.1959,-1.1963,-1.1951,-1.1942,-1.1954,-1.1947,-1.1947,-1.195,-1.1939,-1.1964,-1.1957,-1.1943,-1.1922,-1.1955,-1.1966,-1.1971,-1.1906,-1.1906,-1.1905,-1.1904,0,0,-1.201,-1.1996,-1.2,-1.1998,-1.1989,-1.1993,-1.2004,-1.2004,-1.2007,-1.2004,-1.2012,-1.2017,-1.2004,-1.2003,-1.1991,-1.2,-1.203,-1.1984,-1.1984,-1.1993,-1.2056,-1.2067,-1.2073,-1.202,-1.2021,-1.2021,-1.2057,0,-1.2047,-1.2064,-1.2048,-1.2067,-1.2073,-1.205,-1.2059,-1.2055,-1.2046,-1.205,-1.2041,-1.2045,-1.2027,-1.2026,-1.2034,-1.2025,-1.2042,-1.2022,-1.2027,-1.2027,-1.2029,-1.2079,-1.209,-1.2124,-1.2061,-1.2062,-1.2062,0,-1.2093,-1.2092,-1.2112,-1.2101,-1.2103,-1.2111,-1.2109,-1.2113,-1.2107,-1.2101,-1.21,-1.2085,-1.2094,-1.2073,-1.2085,-1.2072,-1.2073,-1.2068,-1.2069,-1.2069,-1.2047,-1.208,-1.2134,-1.2139,-1.2069,-1.2068,-1.2068,0,-1.2136,-1.2139,-1.2151,-1.215,-1.2138,-1.2144,-1.2139,-1.2133,-1.2133,-1.2132,-1.2132,-1.2132,-1.2132,-1.2132,-1.2118,-1.2104,-1.2131,-1.211,-1.2126,-1.2126,-1.2133,-1.2132,-1.2188,-1.2134,-1.2134,-1.2133,-1.2133,0,-1.2179,-1.2192,-1.217,-1.2178,-1.2191,-1.2173,-1.2187,-1.218,-1.2174,-1.218,-1.216,-1.2166,-1.2147,-1.215,-1.2139,-1.215,-1.215,-1.2145,-1.2142,-1.2147,-1.2147,-1.2147,-1.2144,-1.2135,-1.2134,-1.2134,-1.2134,0,-1.2229,-1.2215,-1.2227,-1.2214,-1.2211,-1.2222,-1.2211,-1.2217,-1.2207,-1.2214,-1.2215,-1.22,-1.2203,-1.2188,-1.2189,-1.2182,-1.2198,-1.2191,-1.22,-1.2198,-1.2215,-1.2213,-1.2272,-1.2279,-1.222,-1.2221,-1.2221,0,-1.2258,-1.2267,-1.2255,-1.2257,-1.2253,-1.2257,-1.2258,-1.224,-1.2241,-1.2235,-1.2242,-1.2243,-1.2244,-1.2249,-1.2238,-1.2239,-1.2231,-1.2252,-1.2231,-1.2235,-1.2231,-1.2231,-1.2231,-1.2256,-1.2257,-1.2258,-1.2258,0,-1.231,-1.2302,-1.2303,-1.2302,-1.2303,-1.2301,-1.2298,-1.2301,-1.2282,-1.2285,-1.2287,-1.2287,-1.2288,-1.2289,-1.2287,-1.2282,-1.2267,-1.2264,-1.2268,-1.2273,-1.2278,-1.2275,-1.2212,-1.2263,-1.2263,-1.2262,-1.2262,-1.2262,-1.235,-1.2356,-1.2349,-1.2351,-1.2347,-1.2344,-1.2349,-1.234,-1.2341,-1.234,-1.233,-1.2334,-1.2327,-1.2323,-1.2319,-1.2322,-1.2313,-1.2318,-1.2319,-1.2321,-1.2324,-1.2277,-1.2322,-1.2322,-1.2322,-1.2321,-1.2321,0,-1.24,-1.2394,-1.2396,-1.2392,-1.2394,-1.2379,-1.2375,-1.2377,-1.2381,-1.2376,-1.2376,-1.2379,-1.238,-1.2369,-1.2368,-1.2373,-1.2366,-1.2373,-1.2373,-1.2372,-1.2333,-1.2329,-1.2379,-1.2379,-1.2379,-1.2379,-1.2379,-1.2379,-1.2427,-1.2438,-1.2429,-1.2437,-1.2431,-1.2435,-1.2434,-1.2431,-1.2427,-1.243,-1.2431,-1.2424,-1.2416,-1.2415,-1.2415,-1.2411,-1.2412,-1.2422,-1.2416,-1.238,-1.2374,-1.2369,-1.2366,-1.2422,-1.2422,-1.2455,-1.2455,-1.2455]},{"header":{"parameterUnit":"m.s-1","parameterCategory":1,"la1":30.2991,"la2":30.254,"lo1":-89.0895,"lo2":-89.0444,"dy":0.0017,"dx":0.0017,"nx":28,"ny":28,"refTime":"2024-02-15T03:00:00:Z","depth":0,"parameterNumber":3,"parameterNumberName":"V-component_of_WINDS"},"data":[0,0,0,0,0,0,0,0,0,0,0,0,0,0,0,0,0,0,0,0,0,0,0,0,0,0,0,0,0,0,0,0,0,0,0,0,0,0,0,0,0,0,0,0,0,0,0,0,0,0,0,0,0,0,0,0,0,0,-0.9567,-0.9566,0,-0.954,-0.9539,-0.9539,-0.9503,-0.9502,-0.9502,-0.9501,-0.9474,-0.9474,-0.9474,0,0,0,0,0,0,0,0,0,0,0,0,0,-0.9587,-0.9587,-0.9567,-0.9566,-0.9566,-0.954,-0.9539,-0.9539,-0.9503,-0.9502,-0.9501,-0.9501,-0.9474,-0.9474,-0.9473,0,0,0,0,0,0,0,0,0,0,0,0,0,-0.9571,-0.9587,-0.9567,-0.9545,-0.9543,-0.954,-0.9539,-0.9539,-0.9503,-0.9502,-0.9501,-0.95,-0.9474,-0.9474,-0.9473,-0.949,0,0,-0.9473,-0.9473,0,0,0,0,0,0,0,0,-0.9572,-0.957,-0.9548,-0.9546,-0.9544,-0.9524,-0.9536,-0.9522,-0.9503,-0.9518,-0.9501,-0.95,-0.9491,-0.9489,-0.9486,-0.9489,-0.9488,-0.9473,-0.9473,-0.9472,-0.9472,0,0,0,0,0,0,0,-0.9573,-0.9571,-0.9556,-0.9548,-0.9545,-0.9536,-0.9533,-0.9534,-0.951,-0.9517,-0.9514,-0.9511,-0.949,-0.9487,-0.9485,-0.9487,-0.9473,-0.9472,-0.9472,-0.9472,-0.95,-0.9501,0,0,0,0,0,0,-0.9577,-0.9572,-0.9557,-0.9555,-0.9556,-0.9537,-0.9533,-0.9531,-0.951,-0.9506,-0.9512,-0.951,-0.9488,-0.9486,-0.9484,-0.9501,-0.9472,-0.9472,-0.9472,-0.9499,-0.95,-0.9501,0,0,0,0,0,0,-0.9578,-0.9576,-0.9558,-0.9563,-0.956,-0.9537,-0.9535,-0.9531,-0.9528,-0.9506,-0.9502,-0.9513,-0.9487,-0.9485,-0.9488,-0.95,-0.9472,-0.9472,-0.9498,-0.9499,-0.9501,-0.9536,0,0,0,0,0,0,-0.9579,-0.9577,-0.9583,-0.9563,-0.956,-0.9563,-0.9536,-0.9531,-0.9528,-0.9524,-0.9506,-0.9503,-0.9486,-0.9489,-0.9488,-0.9499,-0.9472,-0.9497,-0.9499,-0.95,-0.9534,-0.9538,-0.9542,0,0,0,0,0,-0.9579,-0.9594,-0.9584,-0.9582,-0.9567,-0.9564,-0.9562,-0.9542,-0.9529,-0.9534,-0.952,-0.9503,-0.9499,-0.949,-0.9489,-0.9499,-0.9496,-0.9498,-0.95,-0.9532,-0.9538,-0.9542,0,0,0,0,0,0,-0.9617,-0.9592,-0.9579,-0.9588,-0.9578,-0.9558,-0.9564,-0.9549,-0.9542,-0.954,-0.9516,-0.9512,-0.9518,-0.9509,-0.95,-0.9514,-0.9495,-0.9497,-0.9519,-0.9525,-0.9529,-0.9531,-0.9471,0,0,0,0,0,-0.9626,-0.9625,-0.9603,-0.9613,-0.9609,-0.9588,-0.9585,-0.9571,-0.956,-0.9555,-0.9542,-0.9531,-0.9527,-0.9525,-0.9521,-0.9532,-0.9527,-0.9539,-0.9543,-0.9547,-0.9549,-0.9553,-0.9558,-0.9508,-0.9508,-0.9508,0,0,-0.9645,-0.9631,-0.9632,-0.962,-0.9611,-0.961,-0.9584,-0.9585,-0.9584,-0.9555,-0.9558,-0.9547,-0.9534,-0.9542,-0.9544,-0.9534,-0.9562,-0.955,-0.9553,-0.9552,-0.9556,-0.956,-0.9565,-0.9509,-0.9509,-0.9509,0,0,-0.9679,-0.9669,-0.9676,-0.9666,-0.9652,-0.9638,-0.9639,-0.9621,-0.9612,-0.9614,-0.9592,-0.9591,-0.9585,-0.9576,-0.9571,-0.9601,-0.9584,-0.96,-0.9623,-0.9627,-0.9631,-0.9634,-0.9644,-0.9648,-0.9602,-0.9602,-0.9602,0,-0.9705,-0.9703,-0.9681,-0.9683,-0.9678,-0.9651,-0.9658,-0.965,-0.9635,-0.9632,-0.9621,-0.9612,-0.9602,-0.9606,-0.9613,-0.961,-0.961,-0.9602,-0.9632,-0.9635,-0.9638,-0.9647,-0.9651,-0.9604,-0.9604,-0.9603,-0.9603,0,-0.9735,-0.9734,-0.9741,-0.9727,-0.9722,-0.9727,-0.9705,-0.9703,-0.9689,-0.9676,-0.9677,-0.9663,-0.9655,-0.9655,-0.9641,-0.9657,-0.9651,-0.9636,-0.9617,-0.9645,-0.9653,-0.9657,-0.9607,-0.9606,-0.9605,-0.9605,0,0,-0.9792,-0.9765,-0.9768,-0.9761,-0.9742,-0.9741,-0.9744,-0.9735,-0.9734,-0.9724,-0.9725,-0.972,-0.9706,-0.97,-0.9685,-0.9689,-0.9712,-0.9673,-0.9673,-0.968,-0.9727,-0.9738,-0.9743,-0.9701,-0.9701,-0.9702,-0.9728,0,-0.9823,-0.9826,-0.9805,-0.9813,-0.9812,-0.9786,-0.9788,-0.9776,-0.9764,-0.976,-0.9746,-0.9743,-0.9725,-0.9721,-0.9723,-0.9709,-0.9721,-0.9706,-0.9701,-0.9701,-0.9705,-0.9747,-0.9759,-0.9785,-0.9731,-0.9732,-0.9732,0,-0.9859,-0.9851,-0.9859,-0.9839,-0.9837,-0.9839,-0.9829,-0.9826,-0.9813,-0.9803,-0.9796,-0.9778,-0.9779,-0.976,-0.976,-0.975,-0.9747,-0.9739,-0.974,-0.9738,-0.9718,-0.9747,-0.9792,-0.9796,-0.9737,-0.9737,-0.9736,0,-0.99,-0.989,-0.9893,-0.9888,-0.9865,-0.9867,-0.9858,-0.9843,-0.9839,-0.983,-0.9827,-0.9818,-0.9813,-0.9807,-0.9787,-0.9775,-0.9789,-0.9769,-0.978,-0.9781,-0.9784,-0.9785,-0.983,-0.9783,-0.9783,-0.9783,-0.9783,0,-0.9936,-0.9942,-0.9911,-0.9913,-0.9918,-0.9895,-0.99,-0.9888,-0.9875,-0.9874,-0.9851,-0.985,-0.9824,-0.9821,-0.9805,-0.9807,-0.9805,-0.9797,-0.9793,-0.9799,-0.98,-0.9796,-0.9794,-0.9784,-0.9783,-0.9783,-0.9783,0,-0.9982,-0.9962,-0.9964,-0.9942,-0.9936,-0.9941,-0.9922,-0.9922,-0.9908,-0.9906,-0.9904,-0.9882,-0.9876,-0.9855,-0.9845,-0.9834,-0.984,-0.9833,-0.9845,-0.9842,-0.9855,-0.9854,-0.99,-0.9904,-0.9854,-0.9855,-0.9855,0,-1.0007,-1.001,-0.9988,-0.9985,-0.9977,-0.9973,-0.9968,-0.9945,-0.9941,-0.9925,-0.9927,-0.9919,-0.9912,-0.9903,-0.9886,-0.9877,-0.9869,-0.9885,-0.9867,-0.9873,-0.9868,-0.9868,-0.9868,-0.9889,-0.989,-0.989,-0.9891,0,-1.0052,-1.0041,-1.0035,-1.0025,-1.002,-1.0011,-1.0001,-1.0,-0.9974,-0.997,-0.9964,-0.9958,-0.9946,-0.9939,-0.9927,-0.9917,-0.9899,-0.9896,-0.9898,-0.9905,-0.9912,-0.9908,-0.9855,-0.9896,-0.9895,-0.9895,-0.9894,-0.9894,-1.0087,-1.0089,-1.0073,-1.0067,-1.0057,-1.0047,-1.0046,-1.0031,-1.0025,-1.0014,-1.0,-0.9995,-0.998,-0.9963,-0.9954,-0.9949,-0.994,-0.9943,-0.9944,-0.9945,-0.9947,-0.9913,-0.9947,-0.9947,-0.9947,-0.9946,-0.9946,0,-1.0131,-1.0119,-1.0114,-1.01,-1.0094,-1.0078,-1.0065,-1.0062,-1.0058,-1.0045,-1.0038,-1.003,-1.0022,-1.0003,-0.9993,-0.9993,-0.9985,-0.9991,-0.9991,-0.9989,-0.9957,-0.9956,-0.9998,-0.9998,-0.9998,-0.9998,-0.9998,-0.9998,-1.0153,-1.0154,-1.0142,-1.0137,-1.0126,-1.012,-1.0114,-1.0105,-1.0095,-1.0087,-1.008,-1.0068,-1.0053,-1.0041,-1.0033,-1.0027,-1.0025,-1.0034,-1.0026,-0.9996,-0.9991,-0.9987,-0.9985,-1.0034,-1.0034,-1.0058,-1.0059,-1.0059]}]]